Flag for Guatemala Weather past 2 weeks in Guatemala, Guatemala

Now
75 °F

Partly sunny.


Feels Like: 77 °F
Forecast: 65 / 84 °F
Wind: No wind

Location: Guatemala Aeropuertola Aurora

Current Time: Apr 28, 2015 at 10:10:22 AM

Latest Report: Apr 28, 2015 at 9:00 AM


Visibility: 3 mi

Pressure: 30.18 "Hg

Humidity: 65%

Dew point: 63 °F

Location of GuatemalaLocation

Historic Weather in Guatemala — Graph

°F

Guatemala temperature yesterday

Maximum temperature yesterday: 82 °F (at 1:00 PM)
Minimum temperature yesterday: 63 °F (at 4:00 AM)
Average temperature yesterday: 71 °F

Past Weeks' High & Low Weather Summary

 TemperatureHumidityPressure
High86 °F (Apr 24, 2:00 PM)100% (Apr 16, 11:00 PM)30.36 "Hg (Apr 16, 11:00 PM)
Low63 °F (Apr 17, 3:00 AM)29% (Apr 24, 2:00 PM)30.12 "Hg (Apr 26, 4:00 PM)
Average71 °F78%30.23 "Hg
* Reported Apr 13 9:00 AM — Apr 28 9:00 AM, Guatemala, Weather by CustomWeather, © 2015

Note: Actual official high and low records may vary slightly from our data, if they occured in-between our weather recording intervals... More about our weather records

Advertising

Guatemala weather history for previous 24 hours

 ConditionsComfort  
Time TempWeatherWind HumidityBarometerVisibility
9:00 AM
Tue, Apr 28
75 °FPartly sunny.No wind65%30.18 "Hg3 mi
8:00 AM70 °FPartly sunny.5 mph78%30.18 "Hg3 mi
7:00 AM64 °FFog.No wind94%30.15 "Hg3 mi
6:00 AM64 °FFog.No wind94%30.15 "Hg3 mi
5:00 AM64 °FPassing clouds.5 mph94%30.15 "Hg4 mi
4:00 AM64 °FFog.5 mph94%30.12 "Hg3 mi
3:00 AM66 °FPassing clouds.9 mph88%30.12 "Hg4 mi
2:00 AM66 °FFog.7 mph88%30.15 "Hg3 mi
1:00 AM66 °FFog.6 mph88%30.15 "Hg3 mi
12:00 AM66 °FFog.7 mph94%30.18 "Hg3 mi
11:00 PM
Mon, Apr 27
68 °FPassing clouds.9 mph88%30.21 "Hg4 mi
10:00 PM68 °FPassing clouds.7 mph88%30.18 "Hg4 mi
9:00 PM68 °FPassing clouds.9 mph88%30.18 "Hg4 mi
8:00 PM70 °FPassing clouds.9 mph83%30.15 "Hg4 mi
7:00 PM72 °FPassing clouds.12 mph78%30.15 "Hg4 mi
6:00 PM73 °FBroken clouds.12 mph69%30.12 "Hg4 mi
5:00 PM75 °FPartly sunny.18 mph69%30.12 "Hg5 mi
4:00 PM77 °FPartly sunny.16 mph57%30.12 "HgN/A
3:00 PM79 °FPartly sunny.18 mph51%30.12 "HgN/A
2:00 PM81 °FSunny.18 mph48%30.12 "Hg10 mi
1:00 PM82 °FSunny.16 mph40%30.15 "Hg10 mi
12:00 PM81 °FSunny.12 mph42%30.18 "Hg10 mi
11:00 AM77 °FSunny.9 mph47%30.18 "Hg10 mi
10:00 AM73 °FPartly sunny.12 mph57%30.21 "HgN/A
Weather by CustomWeather, © 2015

See weather overviewHow to use our weather pages